London, United Kingdom

6:09 AM GMT on December 16, 2017 (GMT +0000)
Heathrow

Weather History for EGLL - December, 2013

Change the Weather History Date:

Saturday, December 7, 2013

  Actual Average Record
Temperature  
Mean Temperature 44 °F -  
Max Temperature 48 °F 45 °F 59 °F (2007)
Min Temperature 41 °F 36 °F 28 °F (2008)
Degree Days  
Heating Degree Days 20    
Moisture  
Dew Point 43 °F    
Average Humidity 89    
Maximum Humidity 100    
Minimum Humidity 74    
Precipitation  
Precipitation 0.00 in - - ()
Sea Level Pressure  
Sea Level Pressure 30.31 in    
Wind  
Wind Speed 8 mph ()    
Max Wind Speed 13 mph    
Max Gust Speed -    
Visibility 7.2 miles    
Events Rain    
Averages and records for this station are not official NWS values.
T = Trace of Precipitation, MM = Missing Value Source: Averaged Metar Reports

Daily Weather History Graph

Daily Weather History Graph

Search for Another Location

Airport or City:

Trip Planner

Search our weather history database for the weather conditions in past years. The results will help you decide how hot, cold, wet, or windy it might be!

Date:

Astronomy

Dec. 07, 2013 Rise Set
Actual Time 7:52 AM GMT 3:53 PM GMT
Civil Twilight 7:13 AM GMT 4:33 PM GMT
Nautical Twilight 6:30 AM GMT 5:15 PM GMT
Astronomical Twilight 5:50 AM GMT 5:56 PM GMT
Moon 11:05 AM GMT (12/7) 9:44 PM GMT (12/7)
Length of Visible Light 9h 20m
Length of Day
8h 00m
Waxing Crescent, 27% of the Moon is Illuminated
Dec 7
Waxing Crescent
Dec 9
First Quarter
Dec 17
Full
Dec 25
Last Quarter
Jan 1
New

Hourly Weather History & Observations

Time (GMT) Temp. Windchill Dew Point Humidity Pressure Visibility Wind Dir Wind Speed Gust Speed Precip Events Conditions
12:00 AM 43 °F - 41 °F 89% 30.38 in 7 mi West 3.5 mph - -   Mostly Cloudy
12:20 AM 42.8 °F 39.3 °F 41.0 °F 93% 30.36 in 5.6 mi West 5.8 mph - N/A   Unknown
12:50 AM 42.8 °F 38.0 °F 41.0 °F 93% 30.36 in 5.6 mi West 8.1 mph - N/A   Unknown
1:20 AM 42.8 °F 37.5 °F 42.8 °F 100% 30.36 in 5.6 mi West 9.2 mph - N/A   Unknown
1:50 AM 42.8 °F 37.5 °F 42.8 °F 100% 30.36 in 5.0 mi West 9.2 mph - N/A   Partly Cloudy
2:20 AM 42.8 °F 37.5 °F 41.0 °F 93% 30.36 in 5.6 mi West 9.2 mph - N/A   Scattered Clouds
2:50 AM 42.8 °F 38.6 °F 41.0 °F 93% 30.33 in 6.2 mi West 6.9 mph - N/A   Overcast
3:00 AM 43 °F - 41 °F 89% 30.35 in 7 mi West 6.9 mph - -   Scattered Clouds
3:20 AM 42.8 °F 38.6 °F 42.8 °F 100% 30.33 in 6.2 mi West 6.9 mph - N/A   Mostly Cloudy
3:50 AM 42.8 °F 37.5 °F 41.0 °F 93% 30.33 in 5.6 mi West 9.2 mph - N/A   Unknown
4:20 AM 42.8 °F 38.0 °F 41.0 °F 93% 30.33 in 6.2 mi West 8.1 mph - N/A   Unknown
4:50 AM 42.8 °F 37.0 °F 41.0 °F 93% 30.33 in 5.6 mi West 10.4 mph - N/A   Unknown
5:20 AM 42.8 °F 38.6 °F 41.0 °F 93% 30.33 in - West 6.9 mph - N/A   Clear
5:50 AM 42.8 °F 38.6 °F 41.0 °F 93% 30.33 in 6.2 mi West 6.9 mph - N/A   Mostly Cloudy
6:00 AM 43 °F - 40 °F 86% 30.34 in 10 mi West 8.1 mph - -  
6:20 AM 42.8 °F 38.0 °F 41.0 °F 93% 30.33 in 6.2 mi West 8.1 mph - N/A   Mostly Cloudy
6:50 AM 42.8 °F 38.0 °F 41.0 °F 93% 30.33 in 6.2 mi West 8.1 mph - N/A   Mostly Cloudy
7:20 AM 44.6 °F 39.7 °F 42.8 °F 93% 30.33 in 6.2 mi West 9.2 mph - N/A   Mostly Cloudy
7:50 AM 44.6 °F 39.7 °F 42.8 °F 93% 30.33 in 6.2 mi West 9.2 mph - N/A   Mostly Cloudy
8:20 AM 44.6 °F 39.7 °F 42.8 °F 93% 30.33 in 6.2 mi West 9.2 mph - N/A   Mostly Cloudy
8:50 AM 44.6 °F 40.2 °F 42.8 °F 93% 30.33 in 6.2 mi West 8.1 mph - N/A   Mostly Cloudy
9:00 AM 46 °F - 41 °F 78% 30.34 in 15 mi West 8.1 mph - -   Mostly Cloudy
9:20 AM 46.4 °F 41.9 °F 42.8 °F 87% 30.33 in 6.2 mi West 9.2 mph - N/A   Mostly Cloudy
9:50 AM 46.4 °F 41.9 °F 42.8 °F 87% 30.33 in 6.2 mi WSW 9.2 mph - N/A   Mostly Cloudy
10:20 AM 46.4 °F 41.5 °F 42.8 °F 87% 30.33 in 6.2 mi West 10.4 mph - N/A   Mostly Cloudy
10:50 AM 46.4 °F 41.5 °F 42.8 °F 87% 30.33 in 6.2 mi West 10.4 mph - N/A   Mostly Cloudy
11:20 AM 46.4 °F 41.5 °F 42.8 °F 87% 30.33 in 6.2 mi West 10.4 mph - N/A   Mostly Cloudy
11:50 AM 48.2 °F - 42.8 °F 82% 30.33 in 6.2 mi WSW 11.5 mph - N/A   Mostly Cloudy
12:00 PM 47 °F - 42 °F 76% 30.34 in 17 mi WSW 11.5 mph - -   Mostly Cloudy
12:20 PM 48.2 °F - 42.8 °F 82% 30.33 in 6.2 mi WSW 10.4 mph - N/A   Mostly Cloudy
12:50 PM 48.2 °F - 42.8 °F 82% 30.30 in 6.2 mi WSW 10.4 mph - N/A   Mostly Cloudy
1:20 PM 48.2 °F - 42.8 °F 82% 30.30 in 6.2 mi WSW 10.4 mph - N/A   Mostly Cloudy
1:50 PM 48.2 °F - 44.6 °F 87% 30.30 in 6.2 mi West 9.2 mph - N/A   Mostly Cloudy
2:20 PM 48.2 °F - 44.6 °F 87% 30.30 in 6.2 mi West 10.4 mph - N/A   Mostly Cloudy
2:50 PM 48.2 °F - 42.8 °F 82% 30.27 in 6.2 mi WSW 11.5 mph - N/A   Mostly Cloudy
3:00 PM 48 °F - 42 °F 74% 30.29 in 19 mi WSW 12.7 mph - -   Overcast
3:20 PM 48.2 °F - 42.8 °F 82% 30.27 in 6.2 mi WSW 11.5 mph - N/A   Scattered Clouds
3:50 PM 46.4 °F 41.5 °F 42.8 °F 87% 30.27 in 6.2 mi West 10.4 mph - N/A   Mostly Cloudy
4:20 PM 46.4 °F 41.5 °F 42.8 °F 87% 30.27 in 6.2 mi WSW 10.4 mph - N/A   Scattered Clouds
4:50 PM 46.4 °F 41.9 °F 42.8 °F 87% 30.27 in 6.2 mi WSW 9.2 mph - N/A   Scattered Clouds
5:20 PM 46.4 °F 41.1 °F 42.8 °F 87% 30.27 in 6.2 mi WSW 11.5 mph - N/A   Scattered Clouds
5:50 PM 46.4 °F 41.5 °F 42.8 °F 87% 30.27 in - SW 10.4 mph - N/A   Clear
6:00 PM 47 °F - 42 °F 76% 30.29 in 17 mi SW 9.2 mph - -   Mostly Cloudy
6:20 PM 46.4 °F 41.5 °F 42.8 °F 87% 30.27 in - WSW 10.4 mph - N/A   Clear
6:50 PM 46.4 °F 41.5 °F 44.6 °F 93% 30.27 in 6.2 mi WSW 10.4 mph - N/A   Partly Cloudy
7:20 PM 46.4 °F 41.1 °F 44.6 °F 93% 30.27 in 6.2 mi WSW 11.5 mph - N/A   Partly Cloudy
7:50 PM 46.4 °F 41.1 °F 44.6 °F 93% 30.27 in 6.2 mi WSW 11.5 mph - N/A   Partly Cloudy
8:20 PM 46.4 °F 41.1 °F 44.6 °F 93% 30.30 in 6.2 mi WSW 11.5 mph - N/A   Scattered Clouds
8:50 PM 46.4 °F 41.5 °F 44.6 °F 93% 30.30 in 6.2 mi WSW 10.4 mph - N/A   Scattered Clouds
9:00 PM 46 °F - 44 °F 89% 30.30 in 16 mi WSW 10.4 mph - - Rain Light Rain Showers
9:20 PM 46.4 °F 41.1 °F 44.6 °F 93% 30.30 in 6.2 mi WSW 11.5 mph - N/A   Scattered Clouds
9:50 PM 46.4 °F 40.7 °F 44.6 °F 93% 30.30 in 6.2 mi WSW 12.7 mph - N/A   Scattered Clouds
10:20 PM 46.4 °F 40.7 °F 44.6 °F 93% 30.30 in 6.2 mi WSW 12.7 mph - N/A   Scattered Clouds
10:50 PM 46.4 °F 41.1 °F 42.8 °F 87% 30.27 in 6.2 mi WSW 11.5 mph - N/A   Mostly Cloudy
11:20 PM 46.4 °F 41.5 °F 42.8 °F 87% 30.27 in 6.2 mi WSW 10.4 mph - N/A   Mostly Cloudy
11:50 PM 46.4 °F 41.5 °F 42.8 °F 87% 30.27 in 6.2 mi WSW 10.4 mph - N/A   Mostly Cloudy